CDT,Max TemperatureF,Mean TemperatureF,Min TemperatureF,Max Dew PointF,MeanDew PointF,Min DewpointF,Max Humidity, Mean Humidity, Min Humidity, Max Sea Level PressureIn, Mean Sea Level PressureIn, Min Sea Level PressureIn, Max VisibilityMiles, Mean VisibilityMiles, Min VisibilityMiles, Max Wind SpeedMPH, Mean Wind SpeedMPH, Max Gust SpeedMPH,PrecipitationIn, CloudCover, Events, WindDirDegrees
2013-4-1,40,30,20,30,19,14,94,66,35,30.35,30.28,30.18,10,10,10,15,7,21,0.00,0,Thunderstorm,339
2013-4-2,52,38,24,28,23,20,87,58,36,30.32,30.28,30.23,10,10,7,10,1,,0.00,2,,141
2013-4-3,58,44,31,28,26,24,77,54,31,30.33,30.27,30.19,10,10,10,16,9,22,0.00,0,,162
2013-4-4,62,47,32,37,31,27,90,56,29,30.21,30.13,30.06,10,10,10,14,7,18,0.00,1,,268
2013-4-5,70,52,33,39,33,30,89,54,25,30.17,29.98,29.69,10,10,10,22,9,30,0.00,0,,122
2013-4-6,71,59,47,45,41,38,79,54,30,29.79,29.67,29.59,10,10,10,28,12,34,0.00,2,Rain,258
2013-4-7,71,54,38,51,43,38,97,68,33,29.86,29.76,29.59,10,10,7,28,4,18,0.16,5,Rain,104
2013-4-8,67,56,45,59,54,46,100,85,70,29.72,29.67,29.61,10,9,0,15,8,23,0.06,2,Fog-Rain-Thunderstorm,136
2013-4-9,58,46,33,58,42,33,100,97,90,29.99,29.80,29.59,10,6,2,22,13,40,1.15,8,Rain-Snow-Thunderstorm,9
2013-4-10,36,34,32,36,34,32,100,99,92,29.99,29.90,29.82,10,5,1,22,11,29,0.10,8,Rain-Snow-Thunderstorm,339
2013-4-11,36,32,29,35,31,29,100,94,87,29.81,29.70,29.65,10,9,1,21,13,25,0.01,8,Rain-Snow,285
2013-4-12,41,36,29,32,30,28,96,83,64,30.01,29.88,29.73,10,10,10,22,17,28,0.00,7,,298
2013-4-13,54,40,28,39,33,27,96,73,56,30.02,29.88,29.64,10,10,10,17,7,28,0.00,4,,146
2013-4-14,66,54,41,53,44,36,97,77,57,29.69,29.49,29.31,10,10,5,26,13,33,0.39,3,Rain-Thunderstorm,174
2013-4-15,48,40,33,36,30,26,91,70,53,30.10,29.89,29.67,10,10,10,18,10,20,0.00,4,,293
2013-4-16,53,44,35,32,30,24,82,61,35,30.25,30.17,30.08,10,10,10,16,7,21,0.03,7,Thunderstorm,29
2013-4-17,46,41,36,40,36,32,95,85,59,30.19,29.96,29.77,10,8,2,17,10,26,0.45,8,Rain-Thunderstorm,18
2013-4-18,36,34,31,34,30,27,97,88,77,29.92,29.82,29.73,10,6,0,33,20,43,0.25,8,Rain-Snow-Thunderstorm,316
2013-4-19,46,37,28,27,23,20,79,60,36,30.11,29.97,29.87,10,10,10,24,17,31,0.00,1,,300
2013-4-20,46,36,25,27,22,16,88,59,33,30.26,30.17,30.11,10,10,10,16,4,21,0.00,4,,104
2013-4-21,67,55,43,47,36,28,87,53,29,30.13,30.06,29.99,10,10,10,20,11,31,0.00,6,Rain-Thunderstorm,159
2013-4-22,48,40,32,46,38,28,96,92,83,30.25,30.09,29.99,10,6,2,22,7,32,0.94,8,Rain-Thunderstorm,1
2013-4-23,37,32,27,28,23,21,85,70,57,30.27,30.22,30.17,10,10,10,18,13,26,0.00,5,,333
2013-4-24,59,42,25,37,26,20,89,59,22,30.20,30.14,30.04,10,10,7,24,9,31,0.00,1,Rain,258
2013-4-25,70,52,33,34,30,26,86,36,19,30.25,30.11,30.00,10,10,10,21,10,31,0.00,0,,180
2013-4-26,72,60,49,48,40,35,81,49,28,30.19,30.07,30.00,10,10,10,16,11,22,0.00,0,,167
2013-4-27,72,58,43,50,46,35,97,72,26,30.21,30.08,29.94,10,7,0,15,5,,0.00,2,Fog,165
2013-4-28,83,64,46,51,46,41,92,55,23,29.95,29.81,29.69,10,10,5,16,8,25,0.00,0,,170
2013-4-29,83,68,53,53,45,38,74,49,21,29.79,29.67,29.49,10,10,10,14,6,21,0.00,1,,118
2013-4-30,73,66,56,54,42,31,56,41,28,29.94,29.69,29.47,10,10,10,20,13,28,0.03,3,Rain-Thunderstorm,3